SCP
0 0 0 0 0 0 0 0 0 0 0 0 0 0 0 0 0 0 0 0 0 0 0 0 0 0 0 0 0 0 0 0 0 0 0 0 0 0 0 0 0 0 0
0 0 0 0 0 0 0 0 0 0 0 0 0 0 0 0 0 0 0 0 0 0 0 0 0 0 0 0 0 0 0 0 0 0 0 0 0 0 0 0 0 0 0
0 0 0 0 0 0 0 0 0 0 0 0 0 0 0 0 0 0 0 0 0 0 0 0 0 0 0 0 0 0 0 0 0 0 0 0 0 0 0 0 0 0 0
0 0 0 0 0 0 0 0 0 0 0 0 0 0 0 0 0 0 0 0 0 0 0 0 0 0 0 0 0 0 0 0 0 0 0 0 0 0 0 0 0 0 0
0 0 0 0 0 0 0 0 0 0 0 0 0 0 0 0 0 0 0 0 0 0 0 0 0 0 0 0 0 0 0 0 0 0 0 0 0 0 0 0 0 0 0
0 0 0 0 0 0 0 0 0 0 0 0 0 0 0 0 0 0 0 0 0 0 0 0 0 0 0 0 0 0 0 0 0 0 0 0 0 0 0 0 0 0 0
0 0 0 0 0 0 0 0 0 0 0 0 0 0 0 0 0 0 0 0 0 0 0 0 0 0 0 0 0 0 0 0 0 0 0 0 0 0 0 0 0 0 0
0 0 0 0 0 0 0 0 0 0 0 0 0 0 0 0 0 0 0 0 0 0 0 0 0 0 0 0 0 0 0 0 0 0 0 0 0 0 0 0 0 0 0
0 0 0 0 0 0 0 0 0 0 0 0 0 0 0 0 0 0 0 0 0 0 0 0 0 0 0 0 0 0 0 0 0 0 0 0 0 0 0 0 0 0 0
0 0 0 0 0 0 0 0 0 0 0 0 0 0 0 0 0 0 0 0 0 0 0 0 0 0 0 0 0 0 0 0 0 0 0 0 0 0 0 0 0 0 0
0 0 0 0 0 0 0 0 0 0 0 0 0 0 0 0 0 0 0 0 0 0 0 0 0 0 0 0 0 0 0 0 0 0 0 0 0 0 0 0 0 0 0
0 0 0 0 0 0 0 0 0 0 0 0 0 0 0 0 0 0 0 0 0 0 0 0 0 0 0 0 0 0 0 0 0 0 0 0 0 0 0 0 0 0 0
0 0 0 0 0 0 0 0 0 0 0 0 0 0 0 0 0 0 0 0 0 0 0 0 0 0 0 0 0 0 0 0 0 0 0 0 0 0 0 0 0 0 0
0 0 0 0 0 0 0 0 0 0 0 0 0 0 0 0 0 0 0 0 0 0 0 0 0 0 0 0 0 0 0 0 0 0 0 0 0 0 0 0 0 0 0
0 0 0 0 0 0 0 0 0 0 0 0 0 0 0 0 0 0 0 0 0 0 0 0 0 0 0 0 0 0 0 0 0 0 0 0 0 0 0 0 0 0 0
0 0 0 0 0 0 0 0 0 0 0 0 0 0 0 0 0 0 0 0 0 0 0 0 0 0 0 0 0 0 0 0 0 0 0 0 0 0 0 0 0 0 0
0 0 0 0 0 0 0 0 0 0 0 0 0 1 1 0 0 0 0 0 0 0 0 0 0 0 0 0 0 0 0 0 0 0 0 0 0 0 0 0 0 0 0
0 0 0 0 0 0 0 0 0 0 0 0 0 1 1 1 0 0 0 0 0 0 0 0 0 0 0 0 0 0 0 0 0 0 0 0 0 0 0 0 0 0 0
0 0 0 0 0 0 0 0 0 0 0 0 0 1 1 1 1 1 1 0 0 0 0 0 0 0 0 0 0 0 0 0 0 0 0 0 0 0 0 0 0 0 0
0 0 0 0 0 0 0 0 0 0 0 0 0 0 0 0 0 0 1 0 0 0 0 0 0 0 0 0 0 0 0 0 0 0 0 0 0 0 0 0 0 0 0
0 0 0 0 0 0 0 0 0 0 0 0 0 0 0 0 0 0 0 0 0 0 0 0 0 0 0 0 0 0 0 0 0 0 0 0 0 0 0 0 0 0 0
0 0 0 0 0 0 0 0 0 0 0 0 0 0 0 0 0 0 0 0 0 0 0 0 0 0 0 0 0 0 0 0 0 0 0 0 0 0 0 0 0 0 0
0 0 0 0 0 0 0 0 0 0 0 0 0 0 0 0 0 0 0 0 0 0 0 0 0 0 0 0 0 0 0 0 0 0 0 0 0 0 0 0 0 0 0
0 0 0 0 0 0 0 0 0 0 0 0 0 0 0 0 0 0 0 0 0 0 0 0 0 0 0 0 0 0 0 0 0 0 0 0 0 0 0 0 0 0 0
0 0 0 0 0 0 0 0 0 0 0 0 0 0 0 0 0 0 0 0 0 0 0 0 0 0 0 0 0 0 0 0 0 0 0 0 0 0 0 0 0 0 0
0 0 0 0 0 0 0 0 0 0 0 0 0 0 0 0 0 0 0 0 0 0 0 0 0 0 0 0 0 0 0 0 0 0 0 0 0 0 0 0 0 0 0
Wind_Speed
8 10 10 9 9 9 11 12 12 12 13 13 14 14 14 14 14 14 15 16 18 19 20 20 21 21 21 21 21 21 22 23 24 24 24 25 25 25 25 23 21 17 26
12 12 11 9 10 10 11 12 12 12 13 13 14 14 14 14 14 14 15 17 18 19 19 20 20 20 20 19 19 19 19 19 20 21 22 22 24 25 25 24 23 18 26
13 13 10 10 11 11 12 12 12 12 13 14 14 14 14 14 14 15 16 17 17 18 19 19 19 19 19 18 18 18 18 17 18 18 17 11 16 24 25 25 25 25 25
13 12 11 11 12 12 12 12 12 13 13 14 14 14 14 14 15 16 16 17 17 18 19 19 19 19 18 18 17 17 17 18 18 16 11 10 12 23 25 25 25 26 26
12 11 12 12 12 13 13 12 12 13 13 14 14 14 15 15 16 16 17 17 17 18 18 18 18 18 17 17 16 16 16 17 17 14 10 10 10 22 25 25 26 26 26
10 12 12 13 13 13 13 13 12 13 13 14 14 14 15 15 16 16 17 17 17 17 18 18 17 17 16 16 16 16 17 18 13 10 9 9 10 22 24 25 25 25 25
9 11 12 12 12 12 12 13 12 13 13 14 14 14 15 15 16 16 16 17 17 17 17 17 17 17 16 16 16 16 16 17 11 10 9 9 14 23 24 24 25 25 25
9 11 10 10 11 11 11 11 11 12 13 13 14 14 15 15 15 15 16 16 17 17 17 17 17 17 16 16 17 17 15 14 13 12 9 10 18 23 24 24 24 24 25
9 10 9 8 9 10 11 11 11 11 12 12 13 13 13 13 15 15 15 16 17 17 17 17 17 17 17 17 17 16 16 15 9 7 10 9 19 22 23 23 24 24 24
8 8 9 8 8 7 7 10 11 11 11 12 12 12 12 12 13 12 12 15 16 17 17 17 17 16 16 15 14 13 14 11 8 8 6 11 20 22 23 23 23 23 23
7 7 8 9 8 8 8 10 10 11 11 12 10 13 11 7 7 8 10 13 16 16 17 17 16 15 13 13 13 13 10 6 7 6 6 15 20 21 21 22 22 22 22
8 7 6 8 8 8 8 8 7 7 8 7 7 8 6 6 6 9 11 12 13 14 15 15 14 11 7 5 7 9 5 7 6 5 7 17 19 20 20 21 21 21 22
8 7 6 7 7 7 5 7 5 5 6 7 8 8 5 6 7 7 5 6 7 8 6 7 6 4 5 4 4 5 6 6 5 4 7 15 18 18 19 20 20 20 20
9 9 7 6 6 6 6 6 5 5 6 6 8 8 6 5 6 6 5 5 5 3 4 3 3 5 6 6 6 6 7 5 5 4 6 13 15 17 18 18 18 19 19
10 11 10 8 7 6 5 4 5 6 6 7 7 7 8 7 7 7 6 5 5 4 4 4 5 6 6 6 6 7 7 7 6 6 5 12 12 15 16 16 16 17 17
11 11 11 10 8 7 6 5 4 5 5 6 7 9 9 8 8 8 7 6 5 5 5 5 6 5 5 5 6 6 6 6 6 6 5 8 13 13 14 14 15 15 16
9 9 10 11 10 9 8 7 5 4 5 5 6 9 10 9 10 9 8 7 6 6 7 6 6 5 6 6 6 6 5 5 5 5 5 4 6 11 12 13 13 13 14
9 9 10 9 10 10 8 7 5 5 5 5 5 7 10 10 11 9 8 8 7 7 7 7 6 6 6 6 5 5 4 4 5 5 4 4 4 5 8 12 12 12 12
11 11 10 10 10 9 8 6 6 5 5 5 5 6 8 10 11 9 8 8 10 8 7 8 7 7 7 6 6 5 4 4 4 5 5 5 4 4 3 8 11 11 11
10 10 11 11 10 8 6 5 4 5 5 5 5 6 9 9 11 10 8 10 10 9 8 8 8 6 6 7 7 5 3 3 3 4 4 3 3 4 3 4 4 6 9
10 11 12 12 12 9 7 7 7 7 5 5 5 7 8 10 12 11 9 11 11 10 12 11 8 10 7 8 6 3 2 2 3 3 3 3 3 3 4 3 2 2 3
13 12 11 12 12 12 10 8 5 5 5 5 5 6 7 9 12 11 13 12 12 10 11 11 11 7 5 8 6 5 4 2 3 4 3 4 4 3 3 4 3 2 3
13 13 12 12 12 12 10 6 4 4 3 5 7 8 8 9 10 11 14 13 14 13 13 14 16 13 10 9 5 7 7 7 4 3 5 4 5 4 3 4 4 3 4
12 11 11 10 10 10 10 9 10 10 10 10 6 6 7 8 10 11 13 14 14 13 14 15 16 10 12 11 6 4 3 7 7 4 3 4 6 6 6 5 5 4 4
9 9 9 10 10 10 10 11 10 9 7 4 5 7 8 8 9 10 12 13 14 13 14 16 15 12 9 10 8 5 3 3 4 6 5 4 4 5 6 6 5 5 5
5 7 7 8 9 9 9 10 11 10 8 7 8 8 7 6 7 9 10 12 13 13 14 14 16 15 12 11 8 6 7 6 7 6 5 5 4 4 5 5 6 6 5
Wind_Direction
141 140 144 137 130 118 106 98 92 88 86 85 83 82 82 82 81 81 84 85 83 82 80 78 77 76 76 75 76 77 78 77 75 71 69 68 67 67 67 66 64 60 63
135 138 145 142 136 126 113 105 98 94 91 90 88 87 87 87 87 86 87 87 86 85 83 81 79 78 78 77 77 77 79 79 81 77 72 69 70 70 69 68 69 68 67
131 133 144 141 137 129 118 110 103 99 95 93 92 91 91 91 90 89 88 88 88 87 86 84 82 81 80 79 78 77 75 74 78 76 73 70 71 72 71 70 69 68 67
133 139 144 139 137 131 122 115 108 102 99 97 95 94 94 93 93 91 90 89 89 89 88 86 85 83 81 81 79 76 72 73 75 74 70 69 72 74 73 71 69 67 66
133 133 134 140 138 133 127 120 114 107 104 101 99 98 97 96 94 93 92 90 89 89 89 88 86 85 83 81 78 74 72 76 74 74 73 70 72 76 74 72 69 66 64
129 127 137 141 140 137 132 127 121 115 110 107 104 103 102 99 97 95 94 92 91 90 90 89 87 85 83 79 73 69 72 75 69 67 67 70 74 78 76 73 71 68 66
130 127 141 142 142 140 138 134 128 121 116 112 110 108 106 104 102 100 98 97 96 95 94 92 89 85 81 75 68 67 73 79 74 69 67 70 77 80 78 75 72 70 67
129 128 137 139 142 143 142 139 133 127 123 119 117 114 112 109 107 105 104 102 101 99 97 94 92 87 82 74 68 66 70 79 80 78 71 74 82 81 79 77 74 72 70
129 131 139 145 146 144 145 143 138 133 128 125 121 117 112 111 110 108 107 107 106 103 100 97 94 89 83 75 68 64 67 70 68 73 78 76 83 83 82 80 77 75 72
136 143 151 156 156 153 149 149 143 139 134 128 121 116 111 108 107 106 107 111 110 108 105 101 97 90 82 72 64 64 69 68 67 68 72 83 85 85 83 81 79 76 74
152 162 161 163 164 162 162 156 149 144 138 132 128 129 126 122 118 109 110 113 114 112 110 107 102 94 81 66 57 64 63 65 64 64 73 87 88 87 86 83 81 78 75
174 180 173 169 167 166 165 154 160 157 153 153 150 157 153 139 124 114 108 110 112 114 114 114 111 104 85 60 53 64 64 63 61 61 79 89 91 90 88 85 82 79 77
181 183 181 173 169 167 156 161 169 166 167 170 165 179 148 124 121 119 116 111 114 120 115 120 102 76 68 61 56 61 67 63 56 52 69 89 94 93 91 88 85 82 78
186 187 187 179 171 173 166 172 171 169 173 174 175 177 152 143 144 146 147 151 156 139 135 111 94 88 80 71 66 66 73 75 64 49 58 79 93 95 93 90 88 85 81
191 187 184 184 182 178 176 181 177 175 177 176 175 177 163 158 158 157 160 160 157 142 139 126 116 109 99 86 77 73 75 82 77 61 49 61 82 94 94 92 90 86 83
193 188 180 183 187 184 186 190 188 182 179 178 175 178 171 166 165 164 162 160 155 151 145 136 131 119 107 99 91 83 79 80 85 79 62 51 61 80 92 93 90 87 83
192 186 179 181 186 190 194 195 194 190 183 182 180 181 179 173 170 168 166 163 159 150 141 134 127 118 117 111 101 91 84 82 86 85 77 63 49 56 80 90 90 88 85
187 187 184 178 186 193 194 195 195 196 193 189 185 183 184 179 172 168 168 168 158 150 149 146 145 139 132 126 118 107 95 89 89 89 81 77 65 50 61 82 84 87 86
190 185 186 181 186 192 192 194 200 198 200 195 190 188 186 181 175 171 172 167 158 157 157 158 154 149 143 132 120 113 108 104 104 99 90 82 85 84 63 75 72 76 83
190 186 186 183 185 187 186 193 201 205 205 198 195 197 187 183 179 174 171 167 164 163 163 164 158 149 141 135 121 105 105 118 115 120 119 104 108 118 107 88 62 65 79
185 187 187 186 187 186 189 192 196 205 203 202 201 200 195 186 183 180 173 170 171 174 174 168 154 148 144 139 114 103 85 123 138 147 142 141 139 129 124 115 98 72 67
187 191 192 193 189 191 196 192 187 184 200 203 198 205 203 193 188 185 178 177 177 175 172 170 157 150 164 172 147 138 153 218 231 185 162 161 162 153 149 139 130 121 107
188 193 198 199 195 193 188 175 175 181 185 196 203 205 206 200 193 188 184 179 180 180 180 178 175 165 175 195 191 163 161 187 184 195 190 175 170 169 168 157 156 158 149
191 188 192 196 197 193 185 187 187 194 202 205 199 199 198 201 200 193 186 183 184 186 185 184 186 182 173 184 206 224 179 149 151 166 203 196 183 181 179 177 171 175 166
180 181 187 191 197 194 192 193 197 207 211 196 189 192 197 201 203 199 191 188 189 191 189 188 190 191 186 187 184 173 170 152 140 143 174 194 198 197 183 179 175 180 180
158 169 177 186 196 195 195 196 201 207 204 206 202 197 196 197 203 202 196 194 193 194 193 192 193 197 198 196 196 183 173 170 180 162 156 167 187 200 184 180 180 181 184